Time,TemperatureF,DewpointF,PressureIn,WindDirection,WindDirectionDegrees,WindSpeedMPH,WindSpeedGustMPH,Humidity,HourlyPrecipIn,Conditions,Clouds,dailyrainin,SoftwareType,DateUTC
2013-03-29 00:00:00,51.1,35.9,29.59,ESE,113,1.8,4.0,56,0.00,,,0.00,WUHU216HW,2013-03-29 05:00:00,
2013-03-29 00:05:00,51.1,35.9,29.58,SSE,158,0.9,3.6,56,0.00,,,0.00,WUHU216HW,2013-03-29 05:05:00,
2013-03-29 00:10:00,51.1,35.9,29.59,NNE,23,1.8,3.6,56,0.00,,,0.00,WUHU216HW,2013-03-29 05:10:00,
2013-03-29 00:15:00,50.9,35.7,29.59,East,90,0.9,3.6,56,0.00,,,0.00,WUHU216HW,2013-03-29 05:15:00,
2013-03-29 00:20:00,50.9,36.2,29.59,East,90,1.1,3.6,57,0.00,,,0.00,WUHU216HW,2013-03-29 05:20:00,
2013-03-29 00:25:00,50.9,36.2,29.59,ESE,113,2.9,2.9,57,0.00,,,0.00,WUHU216HW,2013-03-29 05:25:00,
2013-03-29 00:30:00,50.8,36.0,29.59,SE,135,2.2,2.9,57,0.00,,,0.00,WUHU216HW,2013-03-29 05:30:00,
2013-03-29 00:35:00,50.8,36.0,29.59,SE,135,1.1,2.5,57,0.00,,,0.00,WUHU216HW,2013-03-29 05:35:00,
2013-03-29 00:40:00,50.8,36.0,29.59,ENE,68,0.4,1.6,57,0.00,,,0.00,WUHU216HW,2013-03-29 05:40:00,
2013-03-29 00:45:00,50.8,36.0,29.59,SE,135,0.9,1.8,57,0.00,,,0.00,WUHU216HW,2013-03-29 05:45:00,
2013-03-29 00:50:00,50.8,36.5,29.59,East,90,0.0,1.8,58,0.00,,,0.00,WUHU216HW,2013-03-29 05:50:00,
2013-03-29 00:55:00,50.6,36.3,29.58,ESE,113,1.1,1.8,58,0.00,,,0.00,WUHU216HW,2013-03-29 05:55:00,
2013-03-29 01:00:00,50.6,36.7,29.58,ESE,113,2.2,2.5,59,0.00,,,0.00,WUHU216HW,2013-03-29 06:00:00,
2013-03-29 01:05:00,50.4,36.6,29.58,NNE,23,1.8,3.8,59,0.00,,,0.00,WUHU216HW,2013-03-29 06:05:00,
2013-03-29 01:10:00,50.4,36.6,29.58,SE,135,3.8,3.8,59,0.00,,,0.00,WUHU216HW,2013-03-29 06:10:00,
2013-03-29 01:15:00,50.2,36.9,29.58,SE,135,0.4,3.8,60,0.00,,,0.00,WUHU216HW,2013-03-29 06:15:00,
2013-03-29 01:20:00,50.0,36.7,29.58,SE,135,3.8,3.8,60,0.00,,,0.00,WUHU216HW,2013-03-29 06:20:00,
2013-03-29 01:25:00,50.0,37.1,29.58,SSE,158,0.7,3.8,61,0.00,,,0.00,WUHU216HW,2013-03-29 06:25:00,
2013-03-29 01:30:00,49.9,37.7,29.59,SE,135,1.6,3.1,63,0.00,,,0.00,WUHU216HW,2013-03-29 06:30:00,
2013-03-29 01:35:00,49.7,38.0,29.58,SSE,158,3.1,3.1,64,0.00,,,0.00,WUHU216HW,2013-03-29 06:35:00,
2013-03-29 01:40:00,49.5,37.5,29.58,East,90,1.8,3.1,63,0.00,,,0.00,WUHU216HW,2013-03-29 06:40:00,
2013-03-29 01:45:00,49.5,37.8,29.58,East,90,5.4,5.4,64,0.00,,,0.00,WUHU216HW,2013-03-29 06:45:00,
2013-03-29 01:50:00,49.3,37.6,29.58,ESE,113,0.9,5.4,64,0.00,,,0.00,WUHU216HW,2013-03-29 06:50:00,
2013-03-29 01:55:00,49.3,37.6,29.58,East,90,3.8,3.8,64,0.00,,,0.00,WUHU216HW,2013-03-29 06:55:00,
2013-03-29 02:00:00,49.3,37.6,29.58,ESE,113,0.2,3.8,64,0.00,,,0.00,WUHU216HW,2013-03-29 07:00:00,
2013-03-29 02:05:00,49.1,37.4,29.57,ENE,68,1.6,2.5,64,0.00,,,0.00,WUHU216HW,2013-03-29 07:05:00,
2013-03-29 02:10:00,49.1,37.4,29.57,NNW,338,1.1,2.0,64,0.00,,,0.00,WUHU216HW,2013-03-29 07:10:00,
2013-03-29 02:15:00,49.0,37.3,29.57,NE,45,2.5,2.5,64,0.00,,,0.00,WUHU216HW,2013-03-29 07:15:00,
2013-03-29 02:20:00,49.0,37.7,29.56,East,90,0.9,4.3,65,0.00,,,0.00,WUHU216HW,2013-03-29 07:20:00,
2013-03-29 02:25:00,49.0,37.3,29.56,East,90,0.9,4.3,64,0.00,,,0.00,WUHU216HW,2013-03-29 07:25:00,
2013-03-29 02:30:00,48.8,37.5,29.56,SW,225,0.4,4.7,65,0.00,,,0.00,WUHU216HW,2013-03-29 07:30:00,
2013-03-29 02:35:00,48.6,37.4,29.56,ESE,113,3.4,4.7,65,0.00,,,0.00,WUHU216HW,2013-03-29 07:35:00,
2013-03-29 02:40:00,48.6,37.7,29.56,ESE,113,2.9,4.5,66,0.00,,,0.00,WUHU216HW,2013-03-29 07:40:00,
2013-03-29 02:45:00,48.6,38.1,29.56,ENE,68,2.5,2.9,67,0.00,,,0.00,WUHU216HW,2013-03-29 07:45:00,
2013-03-29 02:50:00,48.4,37.5,29.56,SSE,158,0.9,2.9,66,0.00,,,0.00,WUHU216HW,2013-03-29 07:50:00,
2013-03-29 02:55:00,48.4,37.9,29.56,East,90,1.8,2.9,67,0.00,,,0.00,WUHU216HW,2013-03-29 07:55:00,
2013-03-29 03:00:00,48.2,37.7,29.56,East,90,1.3,2.2,67,0.00,,,0.00,WUHU216HW,2013-03-29 08:00:00,
2013-03-29 03:05:00,48.2,37.7,29.56,East,90,0.7,2.2,67,0.00,,,0.00,WUHU216HW,2013-03-29 08:05:00,
2013-03-29 03:10:00,48.1,37.6,29.56,ENE,68,1.8,2.0,67,0.00,,,0.00,WUHU216HW,2013-03-29 08:10:00,
2013-03-29 03:15:00,47.9,37.5,29.56,ENE,68,1.1,2.9,67,0.00,,,0.00,WUHU216HW,2013-03-29 08:15:00,
2013-03-29 03:20:00,47.9,37.8,29.56,ENE,68,1.1,2.9,68,0.00,,,0.00,WUHU216HW,2013-03-29 08:20:00,
2013-03-29 03:25:00,47.9,37.8,29.56,East,90,0.4,1.8,68,0.00,,,0.00,WUHU216HW,2013-03-29 08:25:00,
2013-03-29 03:30:00,47.9,37.8,29.56,East,90,0.4,0.9,68,0.00,,,0.00,WUHU216HW,2013-03-29 08:30:00,
2013-03-29 03:54:00,47.3,37.7,29.55,East,90,0.0,0.0,69,0.00,,,0.00,WUHU216HW,2013-03-29 08:54:00,
2013-03-29 03:59:00,47.3,37.7,29.56,East,90,0.0,0.4,69,0.00,,,0.00,WUHU216HW,2013-03-29 08:59:00,
2013-03-29 04:04:00,47.2,37.5,29.56,East,90,0.0,0.4,69,0.00,,,0.00,WUHU216HW,2013-03-29 09:04:00,
2013-03-29 04:09:00,47.2,37.5,29.56,East,90,0.2,1.1,69,0.00,,,0.00,WUHU216HW,2013-03-29 09:09:00,
2013-03-29 04:14:00,47.2,37.5,29.55,East,90,0.2,1.3,69,0.00,,,0.00,WUHU216HW,2013-03-29 09:14:00,
2013-03-29 04:19:00,47.2,37.9,29.55,ESE,113,0.0,1.3,70,0.00,,,0.00,WUHU216HW,2013-03-29 09:19:00,
2013-03-29 04:24:00,47.0,37.7,29.55,ESE,113,1.1,1.1,70,0.00,,,0.00,WUHU216HW,2013-03-29 09:24:00,
2013-03-29 04:29:00,47.0,38.1,29.55,ESE,113,0.4,1.1,71,0.00,,,0.00,WUHU216HW,2013-03-29 09:29:00,
2013-03-29 04:34:00,47.0,38.1,29.55,ESE,113,0.9,1.1,71,0.00,,,0.00,WUHU216HW,2013-03-29 09:34:00,
2013-03-29 04:39:00,46.8,37.9,29.55,ENE,68,1.6,1.6,71,0.00,,,0.00,WUHU216HW,2013-03-29 09:39:00,
2013-03-29 04:44:00,46.8,38.3,29.55,ENE,68,2.0,2.5,72,0.00,,,0.00,WUHU216HW,2013-03-29 09:44:00,
2013-03-29 04:49:00,46.8,38.3,29.55,ESE,113,0.9,3.4,72,0.00,,,0.00,WUHU216HW,2013-03-29 09:49:00,
2013-03-29 04:54:00,46.8,38.3,29.55,ESE,113,1.8,3.4,72,0.00,,,0.00,WUHU216HW,2013-03-29 09:54:00,
2013-03-29 04:59:00,46.8,38.3,29.55,ESE,113,1.8,1.8,72,0.00,,,0.00,WUHU216HW,2013-03-29 09:59:00,
2013-03-29 05:04:00,46.4,38.0,29.55,ESE,113,1.8,2.0,72,0.00,,,0.00,WUHU216HW,2013-03-29 10:04:00,
2013-03-29 05:09:00,46.4,38.3,29.55,ENE,68,0.4,2.0,73,0.00,,,0.00,WUHU216HW,2013-03-29 10:09:00,
2013-03-29 05:14:00,46.4,38.3,29.55,SSW,203,1.1,1.8,73,0.00,,,0.00,WUHU216HW,2013-03-29 10:14:00,
2013-03-29 05:19:00,46.4,38.3,29.55,SE,135,0.9,1.8,73,0.00,,,0.00,WUHU216HW,2013-03-29 10:19:00,
2013-03-29 05:24:00,46.4,38.3,29.55,SE,135,1.8,2.5,73,0.00,,,0.00,WUHU216HW,2013-03-29 10:24:00,
2013-03-29 05:29:00,46.3,38.4,29.55,ESE,113,1.8,2.5,74,0.00,,,0.00,WUHU216HW,2013-03-29 10:29:00,
2013-03-29 05:34:00,46.1,38.3,29.55,ESE,113,2.0,2.5,74,0.00,,,0.00,WUHU216HW,2013-03-29 10:34:00,
2013-03-29 05:39:00,46.1,38.3,29.55,ESE,113,1.1,2.5,74,0.00,,,0.00,WUHU216HW,2013-03-29 10:39:00,
2013-03-29 05:44:00,46.1,37.9,29.55,ESE,113,2.9,2.9,73,0.00,,,0.00,WUHU216HW,2013-03-29 10:44:00,
2013-03-29 05:49:00,46.1,38.6,29.55,SSE,158,0.4,3.1,75,0.00,,,0.00,WUHU216HW,2013-03-29 10:49:00,
2013-03-29 05:54:00,45.9,38.1,29.55,SE,135,2.5,3.1,74,0.00,,,0.00,WUHU216HW,2013-03-29 10:54:00,
2013-03-29 05:59:00,45.9,38.1,29.56,NNE,23,0.2,2.9,74,0.00,,,0.00,WUHU216HW,2013-03-29 10:59:00,
2013-03-29 06:04:00,45.9,38.1,29.56,East,90,0.4,2.9,74,0.00,,,0.00,WUHU216HW,2013-03-29 11:04:00,
2013-03-29 06:09:00,45.9,38.8,29.56,SE,135,2.9,3.4,76,0.00,,,0.00,WUHU216HW,2013-03-29 11:09:00,
2013-03-29 06:14:00,45.9,38.4,29.56,East,90,1.8,3.4,75,0.00,,,0.00,WUHU216HW,2013-03-29 11:14:00,
2013-03-29 06:19:00,45.9,38.4,29.56,East,90,1.1,2.5,75,0.00,,,0.00,WUHU216HW,2013-03-29 11:19:00,
2013-03-29 06:24:00,45.9,38.1,29.56,ENE,68,0.4,2.5,74,0.00,,,0.00,WUHU216HW,2013-03-29 11:24:00,
2013-03-29 06:29:00,45.7,37.9,29.56,East,90,1.3,4.0,74,0.00,,,0.00,WUHU216HW,2013-03-29 11:29:00,
2013-03-29 06:34:00,45.7,38.3,29.56,ENE,68,0.9,4.0,75,0.00,,,0.00,WUHU216HW,2013-03-29 11:34:00,
2013-03-29 06:39:00,45.7,38.3,29.56,NNE,23,0.4,3.6,75,0.00,,,0.00,WUHU216HW,2013-03-29 11:39:00,
2013-03-29 06:44:00,45.7,37.9,29.56,ESE,113,0.4,3.6,74,0.00,,,0.00,WUHU216HW,2013-03-29 11:44:00,
2013-03-29 06:49:00,45.5,37.7,29.56,East,90,0.0,0.9,74,0.00,,,0.00,WUHU216HW,2013-03-29 11:49:00,
2013-03-29 06:54:00,45.4,37.5,29.56,East,90,0.7,1.6,74,0.00,,,0.00,WUHU216HW,2013-03-29 11:54:00,
2013-03-29 06:59:00,45.4,37.5,29.56,ESE,113,0.9,1.6,74,0.00,,,0.00,WUHU216HW,2013-03-29 11:59:00,
2013-03-29 07:04:00,45.4,37.5,29.56,ESE,113,1.8,1.8,74,0.00,,,0.00,WUHU216HW,2013-03-29 12:04:00,
2013-03-29 07:09:00,45.4,37.5,29.56,ENE,68,2.0,2.0,74,0.00,,,0.00,WUHU216HW,2013-03-29 12:09:00,
2013-03-29 07:14:00,45.4,37.5,29.56,South,180,2.9,2.9,74,0.00,,,0.00,WUHU216HW,2013-03-29 12:14:00,
2013-03-29 07:19:00,45.4,37.5,29.56,East,90,1.1,2.9,74,0.00,,,0.00,WUHU216HW,2013-03-29 12:19:00,
2013-03-29 07:24:00,45.4,37.5,29.56,ENE,68,1.8,1.8,74,0.00,,,0.00,WUHU216HW,2013-03-29 12:24:00,
2013-03-29 07:29:00,45.5,38.4,29.57,SE,135,3.8,3.8,76,0.00,,,0.00,WUHU216HW,2013-03-29 12:29:00,
2013-03-29 07:34:00,45.7,38.6,29.57,ESE,113,3.4,3.8,76,0.00,,,0.00,WUHU216HW,2013-03-29 12:34:00,
2013-03-29 07:39:00,45.7,38.3,29.57,SE,135,1.3,3.4,75,0.00,,,0.00,WUHU216HW,2013-03-29 12:39:00,
2013-03-29 07:44:00,45.7,38.6,29.57,SW,225,1.3,3.4,76,0.00,,,0.00,WUHU216HW,2013-03-29 12:44:00,
2013-03-29 07:49:00,46.1,38.6,29.57,SE,135,0.9,3.4,75,0.00,,,0.00,WUHU216HW,2013-03-29 12:49:00,
2013-03-29 07:54:00,46.3,38.8,29.57,SSE,158,1.1,3.8,75,0.00,,,0.00,WUHU216HW,2013-03-29 12:54:00,
2013-03-29 07:59:00,46.3,38.8,29.57,ESE,113,1.1,3.8,75,0.00,,,0.00,WUHU216HW,2013-03-29 12:59:00,
2013-03-29 08:04:00,46.3,38.8,29.57,SE,135,1.1,3.8,75,0.00,,,0.00,WUHU216HW,2013-03-29 13:04:00,
2013-03-29 08:09:00,46.4,39.0,29.57,ESE,113,1.8,2.7,75,0.00,,,0.00,WUHU216HW,2013-03-29 13:09:00,
2013-03-29 08:14:00,46.6,39.5,29.57,ESE,113,2.5,2.9,76,0.00,,,0.00,WUHU216HW,2013-03-29 13:14:00,
2013-03-29 08:19:00,46.8,39.3,29.57,ENE,68,4.9,4.9,75,0.00,,,0.00,WUHU216HW,2013-03-29 13:19:00,
2013-03-29 08:24:00,47.0,39.4,29.57,East,90,2.0,4.9,75,0.00,,,0.00,WUHU216HW,2013-03-29 13:24:00,
2013-03-29 08:29:00,47.2,39.6,29.58,SSE,158,2.9,3.4,75,0.00,,,0.00,WUHU216HW,2013-03-29 13:29:00,
2013-03-29 08:34:00,47.3,39.8,29.57,NE,45,3.6,3.6,75,0.00,,,0.00,WUHU216HW,2013-03-29 13:34:00,
2013-03-29 08:39:00,47.5,39.6,29.57,East,90,0.2,3.6,74,0.00,,,0.00,WUHU216HW,2013-03-29 13:39:00,
2013-03-29 08:44:00,47.9,40.0,29.57,ESE,113,3.4,4.7,74,0.00,,,0.00,WUHU216HW,2013-03-29 13:44:00,
2013-03-29 08:49:00,48.1,40.1,29.57,NNE,23,2.5,4.7,74,0.00,,,0.00,WUHU216HW,2013-03-29 13:49:00,
2013-03-29 08:54:00,48.2,39.9,29.58,North,0,2.0,2.9,73,0.00,,,0.00,WUHU216HW,2013-03-29 13:54:00,
2013-03-29 08:59:00,48.4,40.1,29.58,NNE,23,0.9,4.7,73,0.00,,,0.00,WUHU216HW,2013-03-29 13:59:00,
2013-03-29 09:04:00,48.4,39.8,29.58,NE,45,1.6,4.7,72,0.00,,,0.00,WUHU216HW,2013-03-29 14:04:00,
2013-03-29 09:09:00,48.6,40.0,29.58,ESE,113,2.0,4.0,72,0.00,,,0.00,WUHU216HW,2013-03-29 14:09:00,
2013-03-29 09:14:00,48.8,40.2,29.58,East,90,1.1,3.8,72,0.00,,,0.00,WUHU216HW,2013-03-29 14:14:00,
2013-03-29 09:19:00,49.1,40.5,29.58,SE,135,1.1,3.8,72,0.00,,,0.00,WUHU216HW,2013-03-29 14:19:00,
2013-03-29 09:24:00,49.3,40.7,29.58,South,180,0.4,2.5,72,0.00,,,0.00,WUHU216HW,2013-03-29 14:24:00,
2013-03-29 09:29:00,49.7,41.1,29.58,SSE,158,2.0,2.5,72,0.00,,,0.00,WUHU216HW,2013-03-29 14:29:00,
2013-03-29 09:34:00,49.9,40.9,29.58,ESE,113,1.3,2.5,71,0.00,,,0.00,WUHU216HW,2013-03-29 14:34:00,
2013-03-29 09:39:00,50.0,41.1,29.58,WSW,248,1.8,2.5,71,0.00,,,0.00,WUHU216HW,2013-03-29 14:39:00,
2013-03-29 09:44:00,50.4,41.4,29.58,SSE,158,0.0,2.0,71,0.00,,,0.00,WUHU216HW,2013-03-29 14:44:00,
2013-03-29 09:49:00,50.6,41.2,29.58,SE,135,1.6,2.0,70,0.00,,,0.00,WUHU216HW,2013-03-29 14:49:00,
2013-03-29 09:54:00,50.9,41.6,29.58,East,90,2.7,2.7,70,0.00,,,0.00,WUHU216HW,2013-03-29 14:54:00,
2013-03-29 09:59:00,51.1,41.3,29.58,East,90,1.3,3.1,69,0.00,,,0.00,WUHU216HW,2013-03-29 14:59:00,
2013-03-29 10:04:00,51.5,41.7,29.58,West,270,1.1,3.1,69,0.00,,,0.00,WUHU216HW,2013-03-29 15:04:00,
2013-03-29 10:09:00,51.7,41.9,29.58,SE,135,1.8,3.4,69,0.00,,,0.00,WUHU216HW,2013-03-29 15:09:00,
2013-03-29 10:14:00,51.8,41.7,29.58,SSE,158,0.4,3.4,68,0.00,,,0.00,WUHU216HW,2013-03-29 15:14:00,
2013-03-29 10:19:00,52.2,42.9,29.58,SE,135,1.8,2.9,70,0.00,,,0.00,WUHU216HW,2013-03-29 15:19:00,
2013-03-29 10:24:00,52.4,42.6,29.58,SE,135,1.6,2.5,69,0.00,,,0.00,WUHU216HW,2013-03-29 15:24:00,
2013-03-29 10:29:00,52.7,42.5,29.58,SSW,203,0.4,2.5,68,0.00,,,0.00,WUHU216HW,2013-03-29 15:29:00,
2013-03-29 10:34:00,52.9,42.7,29.58,ESE,113,1.6,4.0,68,0.00,,,0.00,WUHU216HW,2013-03-29 15:34:00,
2013-03-29 10:39:00,53.1,42.9,29.58,East,90,1.6,4.0,68,0.00,,,0.00,WUHU216HW,2013-03-29 15:39:00,
2013-03-29 10:44:00,53.5,43.6,29.59,SE,135,0.0,2.5,69,0.00,,,0.00,WUHU216HW,2013-03-29 15:44:00,
2013-03-29 10:49:00,54.0,43.7,29.59,ESE,113,0.7,1.3,68,0.00,,,0.00,WUHU216HW,2013-03-29 15:49:00,
2013-03-29 10:54:00,54.4,44.0,29.59,ESE,113,0.0,1.1,68,0.00,,,0.00,WUHU216HW,2013-03-29 15:54:00,
2013-03-29 10:59:00,54.9,44.6,29.58,WNW,293,0.9,0.9,68,0.00,,,0.00,WUHU216HW,2013-03-29 15:59:00,
2013-03-29 11:04:00,55.4,44.6,29.58,ESE,113,2.0,2.0,67,0.00,,,0.00,WUHU216HW,2013-03-29 16:04:00,
2013-03-29 11:09:00,55.6,44.4,29.59,SSW,203,0.2,2.0,66,0.00,,,0.00,WUHU216HW,2013-03-29 16:09:00,
2013-03-29 11:14:00,55.8,44.6,29.59,ESE,113,0.4,2.5,66,0.00,,,0.00,WUHU216HW,2013-03-29 16:14:00,
2013-03-29 11:19:00,56.0,44.4,29.58,ESE,113,0.2,2.5,65,0.00,,,0.00,WUHU216HW,2013-03-29 16:19:00,
2013-03-29 11:24:00,56.2,44.1,29.59,SE,135,3.1,3.1,64,0.00,,,0.00,WUHU216HW,2013-03-29 16:24:00,
2013-03-29 11:29:00,56.5,44.8,29.58,NE,45,2.0,3.1,65,0.00,,,0.00,WUHU216HW,2013-03-29 16:29:00,
2013-03-29 11:34:00,56.5,43.7,29.58,ESE,113,0.9,2.9,62,0.00,,,0.00,WUHU216HW,2013-03-29 16:34:00,
2013-03-29 11:39:00,56.5,44.5,29.58,SSE,158,1.3,3.6,64,0.00,,,0.00,WUHU216HW,2013-03-29 16:39:00,
2013-03-29 11:44:00,56.9,44.8,29.58,NNE,23,0.0,3.8,64,0.00,,,0.00,WUHU216HW,2013-03-29 16:44:00,
2013-03-29 11:49:00,57.1,44.6,29.58,NW,315,0.0,3.8,63,0.00,,,0.00,WUHU216HW,2013-03-29 16:49:00,
2013-03-29 11:54:00,57.2,44.7,29.57,ENE,68,0.7,2.0,63,0.00,,,0.00,WUHU216HW,2013-03-29 16:54:00,
2013-03-29 11:59:00,58.0,45.5,29.57,WNW,293,0.2,1.6,63,0.00,,,0.00,WUHU216HW,2013-03-29 16:59:00,
2013-03-29 12:04:00,58.3,45.4,29.58,SSW,203,0.2,2.5,62,0.00,,,0.00,WUHU216HW,2013-03-29 17:04:00,
2013-03-29 12:09:00,58.7,44.8,29.57,ESE,113,2.5,2.5,60,0.00,,,0.00,WUHU216HW,2013-03-29 17:09:00,
2013-03-29 12:14:00,58.7,45.3,29.57,NE,45,0.0,2.5,61,0.00,,,0.00,WUHU216HW,2013-03-29 17:14:00,
2013-03-29 12:19:00,58.7,45.3,29.57,NE,45,0.0,0.4,61,0.00,,,0.00,WUHU216HW,2013-03-29 17:19:00,
2013-03-29 12:41:00,60.1,44.8,29.57,SE,135,0.4,0.4,57,0.00,,,0.00,WUHU216HW,2013-03-29 17:41:00,
2013-03-29 12:46:00,60.5,46.2,29.56,WNW,293,0.4,2.5,59,0.00,,,0.00,WUHU216HW,2013-03-29 17:46:00,
2013-03-29 12:51:00,61.0,47.2,29.56,ESE,113,0.0,2.5,60,0.00,,,0.00,WUHU216HW,2013-03-29 17:51:00,
2013-03-29 12:56:00,61.6,46.6,29.56,East,90,1.1,3.1,58,0.00,,,0.00,WUHU216HW,2013-03-29 17:56:00,
2013-03-29 13:01:00,61.9,47.0,29.56,North,0,0.4,3.1,58,0.00,,,0.00,WUHU216HW,2013-03-29 18:01:00,
2013-03-29 13:06:00,61.9,46.5,29.56,East,90,0.9,1.1,57,0.00,,,0.00,WUHU216HW,2013-03-29 18:06:00,
2013-03-29 13:11:00,62.3,46.4,29.56,East,90,0.4,2.0,56,0.00,,,0.00,WUHU216HW,2013-03-29 18:11:00,
2013-03-29 13:16:00,62.5,45.6,29.56,SE,135,2.9,5.8,54,0.00,,,0.00,WUHU216HW,2013-03-29 18:16:00,
2013-03-29 13:21:00,62.3,45.8,29.56,SE,135,0.0,5.8,55,0.00,,,0.00,WUHU216HW,2013-03-29 18:21:00,
2013-03-29 13:26:00,62.5,46.5,29.56,South,180,0.4,2.7,56,0.00,,,0.00,WUHU216HW,2013-03-29 18:26:00,
2013-03-29 13:31:00,63.0,46.5,29.56,SE,135,1.3,3.1,55,0.00,,,0.00,WUHU216HW,2013-03-29 18:31:00,
2013-03-29 13:36:00,63.5,47.4,29.56,SE,135,1.3,3.1,56,0.00,,,0.00,WUHU216HW,2013-03-29 18:36:00,
2013-03-29 13:41:00,63.7,47.2,29.56,SE,135,0.4,2.5,55,0.00,,,0.00,WUHU216HW,2013-03-29 18:41:00,
2013-03-29 13:46:00,64.1,46.5,29.56,SSE,158,0.0,3.6,53,0.00,,,0.00,WUHU216HW,2013-03-29 18:46:00,
2013-03-29 13:51:00,64.4,47.8,29.56,NW,315,0.9,3.6,55,0.00,,,0.00,WUHU216HW,2013-03-29 18:51:00,
2013-03-29 13:56:00,64.4,47.4,29.56,NW,315,0.4,1.1,54,0.00,,,0.00,WUHU216HW,2013-03-29 18:56:00,
2013-03-29 14:01:00,64.4,46.4,29.56,East,90,2.7,2.7,52,0.00,,,0.00,WUHU216HW,2013-03-29 19:01:00,
2013-03-29 14:06:00,64.4,45.4,29.55,ESE,113,2.7,2.7,50,0.00,,,0.00,WUHU216HW,2013-03-29 19:06:00,
2013-03-29 14:11:00,64.1,45.0,29.55,SE,135,0.0,4.0,50,0.00,,,0.00,WUHU216HW,2013-03-29 19:11:00,
2013-03-29 14:16:00,63.7,45.2,29.55,North,0,1.1,4.0,51,0.00,,,0.00,WUHU216HW,2013-03-29 19:16:00,
2013-03-29 14:21:00,63.9,46.4,29.55,West,270,0.4,2.5,53,0.00,,,0.00,WUHU216HW,2013-03-29 19:21:00,
2013-03-29 14:26:00,63.7,46.2,29.55,NW,315,0.4,2.5,53,0.00,,,0.00,WUHU216HW,2013-03-29 19:26:00,
2013-03-29 14:31:00,63.5,46.0,29.55,WNW,293,0.7,1.8,53,0.00,,,0.00,WUHU216HW,2013-03-29 19:31:00,
2013-03-29 14:36:00,63.4,45.8,29.55,West,270,0.2,1.8,53,0.00,,,0.00,WUHU216HW,2013-03-29 19:36:00,
2013-03-29 14:41:00,63.0,45.0,29.54,ESE,113,1.8,5.4,52,0.00,,,0.00,WUHU216HW,2013-03-29 19:41:00,
2013-03-29 14:46:00,62.6,45.7,29.54,NE,45,0.9,5.4,54,0.00,,,0.00,WUHU216HW,2013-03-29 19:46:00,
2013-03-29 14:51:00,63.2,46.2,29.54,NE,45,0.7,1.1,54,0.00,,,0.00,WUHU216HW,2013-03-29 19:51:00,
2013-03-29 14:56:00,64.1,47.0,29.54,SSW,203,0.0,2.5,54,0.00,,,0.00,WUHU216HW,2013-03-29 19:56:00,
2013-03-29 15:01:00,64.6,47.0,29.54,West,270,0.2,2.5,53,0.00,,,0.00,WUHU216HW,2013-03-29 20:01:00,
2013-03-29 15:06:00,65.2,47.1,29.54,SE,135,0.0,1.1,52,0.00,,,0.00,WUHU216HW,2013-03-29 20:06:00,
2013-03-29 15:11:00,65.9,47.3,29.54,ENE,68,2.0,2.0,51,0.00,,,0.00,WUHU216HW,2013-03-29 20:11:00,
2013-03-29 15:17:00,66.4,47.4,29.54,SSE,158,0.4,2.0,50,0.00,,,0.00,WUHU216HW,2013-03-29 20:17:00,
2013-03-29 15:22:00,66.8,47.6,29.54,SW,225,0.4,1.8,50,0.00,,,0.00,WUHU216HW,2013-03-29 20:22:00,
2013-03-29 15:27:00,66.6,45.7,29.54,SE,135,1.1,2.2,47,0.00,,,0.00,WUHU216HW,2013-03-29 20:27:00,
2013-03-29 15:32:00,65.5,44.6,29.54,East,90,2.0,2.9,47,0.00,,,0.00,WUHU216HW,2013-03-29 20:32:00,
2013-03-29 15:37:00,64.8,45.2,29.53,ESE,113,0.0,2.9,49,0.00,,,0.00,WUHU216HW,2013-03-29 20:37:00,
2013-03-29 15:42:00,64.6,45.5,29.53,NW,315,1.1,1.6,50,0.00,,,0.00,WUHU216HW,2013-03-29 20:42:00,
2013-03-29 15:47:00,65.0,45.9,29.53,SE,135,0.7,1.1,50,0.00,,,0.00,WUHU216HW,2013-03-29 20:47:00,
2013-03-29 15:52:00,65.7,46.6,29.53,SE,135,0.7,0.9,50,0.00,,,0.00,WUHU216HW,2013-03-29 20:52:00,
2013-03-29 15:57:00,66.6,46.9,29.53,SW,225,0.0,1.8,49,0.00,,,0.00,WUHU216HW,2013-03-29 20:57:00,
2013-03-29 16:02:00,67.0,47.3,29.53,SW,225,0.2,1.8,49,0.00,,,0.00,WUHU216HW,2013-03-29 21:02:00,
2013-03-29 16:07:00,67.0,46.0,29.53,SW,225,0.0,1.6,47,0.00,,,0.00,WUHU216HW,2013-03-29 21:07:00,
2013-03-29 16:12:00,67.0,46.6,29.53,WNW,293,0.0,1.6,48,0.00,,,0.00,WUHU216HW,2013-03-29 21:12:00,
2013-03-29 16:17:00,66.6,46.3,29.53,ESE,113,0.0,1.3,48,0.00,,,0.00,WUHU216HW,2013-03-29 21:17:00,
2013-03-29 16:22:00,67.0,46.6,29.53,East,90,0.9,2.2,48,0.00,,,0.00,WUHU216HW,2013-03-29 21:22:00,
2013-03-29 16:27:00,67.3,46.4,29.53,SSE,158,0.4,2.2,47,0.00,,,0.00,WUHU216HW,2013-03-29 21:27:00,
2013-03-29 16:32:00,67.5,46.5,29.53,ESE,113,1.1,2.2,47,0.00,,,0.00,WUHU216HW,2013-03-29 21:32:00,
2013-03-29 16:37:00,67.3,46.4,29.52,ESE,113,0.4,2.7,47,0.00,,,0.00,WUHU216HW,2013-03-29 21:37:00,
2013-03-29 16:42:00,67.1,46.2,29.52,ENE,68,0.7,2.7,47,0.00,,,0.00,WUHU216HW,2013-03-29 21:42:00,
2013-03-29 16:47:00,66.8,45.9,29.52,NW,315,1.1,1.1,47,0.00,,,0.00,WUHU216HW,2013-03-29 21:47:00,
2013-03-29 16:52:00,66.2,45.4,29.52,ESE,113,0.0,1.1,47,0.00,,,0.00,WUHU216HW,2013-03-29 21:52:00,
2013-03-29 16:57:00,66.2,45.4,29.52,ESE,113,1.1,1.1,47,0.00,,,0.00,WUHU216HW,2013-03-29 21:57:00,
2013-03-29 17:02:00,66.6,45.7,29.52,East,90,0.0,1.1,47,0.00,,,0.00,WUHU216HW,2013-03-29 22:02:00,
2013-03-29 17:07:00,66.2,45.4,29.52,East,90,0.0,1.3,47,0.00,,,0.00,WUHU216HW,2013-03-29 22:07:00,
2013-03-29 17:12:00,65.7,44.8,29.52,NE,45,0.4,1.3,47,0.00,,,0.00,WUHU216HW,2013-03-29 22:12:00,
2013-03-29 17:17:00,65.2,44.9,29.52,North,0,0.0,0.4,48,0.00,,,0.00,WUHU216HW,2013-03-29 22:17:00,
2013-03-29 17:22:00,65.0,44.7,29.53,SE,135,0.2,0.2,48,0.00,,,0.00,WUHU216HW,2013-03-29 22:22:00,
2013-03-29 17:27:00,64.6,44.4,29.53,WSW,248,0.0,0.2,48,0.00,,,0.00,WUHU216HW,2013-03-29 22:27:00,
2013-03-29 17:32:00,64.4,44.2,29.53,East,90,0.0,0.9,48,0.00,,,0.00,WUHU216HW,2013-03-29 22:32:00,
2013-03-29 17:37:00,64.3,44.0,29.53,East,90,0.4,0.9,48,0.00,,,0.00,WUHU216HW,2013-03-29 22:37:00,
2013-03-29 17:42:00,64.3,44.0,29.53,NNE,23,0.0,0.7,48,0.00,,,0.00,WUHU216HW,2013-03-29 22:42:00,
2013-03-29 17:47:00,64.1,44.5,29.53,East,90,0.0,0.0,49,0.00,,,0.00,WUHU216HW,2013-03-29 22:47:00,
2013-03-29 17:52:00,64.1,43.9,29.53,East,90,0.9,1.3,48,0.00,,,0.00,WUHU216HW,2013-03-29 22:52:00,
2013-03-29 17:57:00,63.9,44.3,29.53,ENE,68,0.7,1.3,49,0.00,,,0.00,WUHU216HW,2013-03-29 22:57:00,
2013-03-29 18:02:00,63.9,44.3,29.53,East,90,0.0,1.1,49,0.00,,,0.00,WUHU216HW,2013-03-29 23:02:00,
2013-03-29 18:07:00,63.9,44.3,29.53,ESE,113,0.0,1.1,49,0.00,,,0.00,WUHU216HW,2013-03-29 23:07:00,
2013-03-29 18:12:00,64.1,44.5,29.53,ESE,113,0.2,2.0,49,0.00,,,0.00,WUHU216HW,2013-03-29 23:12:00,
2013-03-29 18:17:00,64.3,44.7,29.53,SE,135,1.6,2.0,49,0.00,,,0.00,WUHU216HW,2013-03-29 23:17:00,
2013-03-29 18:22:00,63.9,44.3,29.53,East,90,0.4,1.6,49,0.00,,,0.00,WUHU216HW,2013-03-29 23:22:00,
2013-03-29 18:27:00,63.5,44.0,29.53,SW,225,0.0,0.9,49,0.00,,,0.00,WUHU216HW,2013-03-29 23:27:00,
2013-03-29 18:32:00,63.0,43.5,29.53,ESE,113,0.0,0.4,49,0.00,,,0.00,WUHU216HW,2013-03-29 23:32:00,
2013-03-29 18:38:00,62.5,43.6,29.53,East,90,0.0,0.4,50,0.00,,,0.00,WUHU216HW,2013-03-29 23:38:00,
2013-03-29 18:43:00,62.3,43.4,29.53,ESE,113,0.0,0.2,50,0.00,,,0.00,WUHU216HW,2013-03-29 23:43:00,
2013-03-29 18:47:00,61.9,43.1,29.54,ESE,113,0.4,0.4,50,0.00,,,0.00,WUHU216HW,2013-03-29 23:47:00,
2013-03-29 18:52:00,61.6,43.3,29.54,ESE,113,0.0,0.4,51,0.00,,,0.00,WUHU216HW,2013-03-29 23:52:00,
2013-03-29 18:57:00,61.2,42.9,29.54,East,90,0.9,0.9,51,0.00,,,0.00,WUHU216HW,2013-03-29 23:57:00,
2013-03-29 19:03:00,60.8,42.6,29.54,ENE,68,0.0,0.9,51,0.00,,,0.00,WUHU216HW,2013-03-30 00:03:00,
2013-03-29 19:07:00,60.7,42.9,29.54,ESE,113,0.2,0.4,52,0.00,,,0.00,WUHU216HW,2013-03-30 00:07:00,
2013-03-29 19:13:00,60.5,42.8,29.54,East,90,0.0,0.2,52,0.00,,,0.00,WUHU216HW,2013-03-30 00:13:00,
2013-03-29 19:17:00,60.3,42.6,29.54,East,90,0.0,0.2,52,0.00,,,0.00,WUHU216HW,2013-03-30 00:17:00,
2013-03-29 19:23:00,59.9,42.8,29.54,East,90,0.0,0.7,53,0.00,,,0.00,WUHU216HW,2013-03-30 00:23:00,
2013-03-29 19:28:00,59.6,42.4,29.54,East,90,0.0,0.7,53,0.00,,,0.00,WUHU216HW,2013-03-30 00:28:00,
2013-03-29 19:33:00,59.4,42.2,29.54,ESE,113,0.2,0.4,53,0.00,,,0.00,WUHU216HW,2013-03-30 00:33:00,
2013-03-29 19:38:00,59.0,42.4,29.54,East,90,0.0,0.2,54,0.00,,,0.00,WUHU216HW,2013-03-30 00:38:00,
2013-03-29 19:43:00,58.7,42.0,29.54,East,90,0.0,0.4,54,0.00,,,0.00,WUHU216HW,2013-03-30 00:43:00,
2013-03-29 19:48:00,58.5,42.4,29.54,ESE,113,0.4,0.4,55,0.00,,,0.00,WUHU216HW,2013-03-30 00:48:00,
2013-03-29 19:53:00,58.3,42.2,29.54,ESE,113,0.0,0.4,55,0.00,,,0.00,WUHU216HW,2013-03-30 00:53:00,
2013-03-29 19:58:00,58.0,41.9,29.54,ESE,113,0.0,0.0,55,0.00,,,0.00,WUHU216HW,2013-03-30 00:58:00,
2013-03-29 20:03:00,58.0,42.3,29.54,East,90,0.0,0.0,56,0.00,,,0.00,WUHU216HW,2013-03-30 01:03:00,
2013-03-29 20:08:00,57.6,41.6,29.54,East,90,0.0,0.0,55,0.00,,,0.00,WUHU216HW,2013-03-30 01:08:00,
2013-03-29 20:13:00,57.4,41.9,29.54,East,90,0.0,0.0,56,0.00,,,0.00,WUHU216HW,2013-03-30 01:13:00,
2013-03-29 20:18:00,57.2,41.7,29.54,East,90,0.0,0.0,56,0.00,,,0.00,WUHU216HW,2013-03-30 01:18:00,
2013-03-29 20:23:00,57.1,41.5,29.54,East,90,0.0,0.0,56,0.00,,,0.00,WUHU216HW,2013-03-30 01:23:00,
2013-03-29 20:28:00,56.7,41.6,29.54,East,90,0.0,0.0,57,0.00,,,0.00,WUHU216HW,2013-03-30 01:28:00,
2013-03-29 20:33:00,56.5,41.4,29.55,East,90,0.0,0.0,57,0.00,,,0.00,WUHU216HW,2013-03-30 01:33:00,
2013-03-29 20:38:00,56.3,41.2,29.55,East,90,0.0,0.0,57,0.00,,,0.00,WUHU216HW,2013-03-30 01:38:00,
2013-03-29 20:43:00,56.2,41.6,29.55,East,90,0.0,0.0,58,0.00,,,0.00,WUHU216HW,2013-03-30 01:43:00,
2013-03-29 20:48:00,55.8,41.2,29.55,East,90,0.0,0.2,58,0.00,,,0.00,WUHU216HW,2013-03-30 01:48:00,
2013-03-29 20:53:00,55.8,41.2,29.55,East,90,0.0,0.2,58,0.00,,,0.00,WUHU216HW,2013-03-30 01:53:00,
2013-03-29 20:58:00,55.4,41.3,29.56,East,90,0.0,0.0,59,0.00,,,0.00,WUHU216HW,2013-03-30 01:58:00,
2013-03-29 21:03:00,55.3,41.1,29.56,East,90,0.0,0.0,59,0.00,,,0.00,WUHU216HW,2013-03-30 02:03:00,
2013-03-29 21:08:00,55.1,41.0,29.56,East,90,0.0,0.0,59,0.00,,,0.00,WUHU216HW,2013-03-30 02:08:00,
2013-03-29 21:13:00,55.1,41.4,29.56,East,90,0.0,0.0,60,0.00,,,0.00,WUHU216HW,2013-03-30 02:13:00,
2013-03-29 21:18:00,54.9,41.3,29.56,East,90,0.0,0.0,60,0.00,,,0.00,WUHU216HW,2013-03-30 02:18:00,
2013-03-29 21:23:00,54.7,41.1,29.56,East,90,0.0,0.0,60,0.00,,,0.00,WUHU216HW,2013-03-30 02:23:00,
2013-03-29 21:28:00,54.4,40.8,29.56,East,90,0.0,0.0,60,0.00,,,0.00,WUHU216HW,2013-03-30 02:28:00,
2013-03-29 21:33:00,54.2,41.1,29.56,East,90,0.0,0.0,61,0.00,,,0.00,WUHU216HW,2013-03-30 02:33:00,
2013-03-29 21:38:00,54.0,40.9,29.56,East,90,0.0,0.0,61,0.00,,,0.00,WUHU216HW,2013-03-30 02:38:00,
2013-03-29 21:43:00,53.8,41.1,29.56,East,90,0.0,0.0,62,0.00,,,0.00,WUHU216HW,2013-03-30 02:43:00,
2013-03-29 21:48:00,53.6,41.0,29.56,East,90,0.0,0.0,62,0.00,,,0.00,WUHU216HW,2013-03-30 02:48:00,
2013-03-29 21:53:00,53.3,40.6,29.56,East,90,0.0,0.0,62,0.00,,,0.00,WUHU216HW,2013-03-30 02:53:00,
2013-03-29 21:58:00,53.1,40.8,29.56,East,90,0.0,0.0,63,0.00,,,0.00,WUHU216HW,2013-03-30 02:58:00,
2013-03-29 22:03:00,53.1,40.8,29.56,East,90,0.2,0.2,63,0.00,,,0.00,WUHU216HW,2013-03-30 03:03:00,
2013-03-29 22:08:00,52.9,40.6,29.56,East,90,0.0,0.2,63,0.00,,,0.00,WUHU216HW,2013-03-30 03:08:00,
2013-03-29 22:13:00,52.9,41.1,29.56,ESE,113,0.0,0.0,64,0.00,,,0.00,WUHU216HW,2013-03-30 03:13:00,
2013-03-29 22:18:00,52.7,40.9,29.56,ESE,113,0.0,0.0,64,0.00,,,0.00,WUHU216HW,2013-03-30 03:18:00,
2013-03-29 22:23:00,52.6,40.7,29.56,ESE,113,0.0,0.0,64,0.00,,,0.00,WUHU216HW,2013-03-30 03:23:00,
2013-03-29 22:28:00,52.6,40.7,29.56,East,90,0.0,0.0,64,0.00,,,0.00,WUHU216HW,2013-03-30 03:28:00,
2013-03-29 22:33:00,52.4,40.5,29.56,ESE,113,0.0,0.2,64,0.00,,,0.00,WUHU216HW,2013-03-30 03:33:00,
2013-03-29 22:38:00,52.2,40.8,29.56,East,90,0.2,0.2,65,0.00,,,0.00,WUHU216HW,2013-03-30 03:38:00,
2013-03-29 22:43:00,52.2,40.8,29.56,ESE,113,0.0,0.2,65,0.00,,,0.00,WUHU216HW,2013-03-30 03:43:00,
2013-03-29 22:48:00,52.2,40.8,29.56,ESE,113,0.0,0.2,65,0.00,,,0.00,WUHU216HW,2013-03-30 03:48:00,
2013-03-29 22:53:00,52.2,41.1,29.56,East,90,0.0,0.2,66,0.00,,,0.00,WUHU216HW,2013-03-30 03:53:00,
2013-03-29 22:58:00,52.0,41.0,29.56,East,90,0.0,0.2,66,0.00,,,0.00,WUHU216HW,2013-03-30 03:58:00,
2013-03-29 23:00:00,52.0,41.0,29.56,ESE,113,0.2,0.4,66,0.00,,,0.00,WUHU216HW,2013-03-30 04:00:00,
2013-03-29 23:05:00,51.8,41.2,29.56,ESE,113,0.0,0.4,67,0.00,,,0.00,WUHU216HW,2013-03-30 04:05:00,
2013-03-29 23:10:00,51.8,41.2,29.56,East,90,0.2,0.4,67,0.00,,,0.00,WUHU216HW,2013-03-30 04:10:00,
2013-03-29 23:15:00,51.8,41.2,29.56,East,90,0.2,0.4,67,0.00,,,0.00,WUHU216HW,2013-03-30 04:15:00,
2013-03-29 23:20:00,51.7,41.0,29.55,ESE,113,0.0,0.2,67,0.00,,,0.00,WUHU216HW,2013-03-30 04:20:00,
2013-03-29 23:25:00,51.7,41.0,29.55,East,90,0.0,0.0,67,0.00,,,0.00,WUHU216HW,2013-03-30 04:25:00,
2013-03-29 23:30:00,51.5,40.9,29.55,East,90,0.2,0.2,67,0.00,,,0.00,WUHU216HW,2013-03-30 04:30:00,
2013-03-29 23:35:00,51.5,41.3,29.55,East,90,0.0,0.2,68,0.00,,,0.00,WUHU216HW,2013-03-30 04:35:00,
2013-03-29 23:40:00,51.3,41.1,29.55,East,90,0.0,0.0,68,0.00,,,0.00,WUHU216HW,2013-03-30 04:40:00,
2013-03-29 23:45:00,51.1,41.0,29.55,East,90,0.0,0.0,68,0.00,,,0.00,WUHU216HW,2013-03-30 04:45:00,
2013-03-29 23:50:00,51.1,41.0,29.55,East,90,0.0,0.0,68,0.00,,,0.00,WUHU216HW,2013-03-30 04:50:00,
2013-03-29 23:59:00,50.8,40.6,29.55,East,90,0.0,0.0,68,0.00,,,0.00,WUHU216HW,2013-03-30 04:59:00,